Paso Robles, CA

11:28 PM PST on February 07, 2016 (GMT -0800)
Paso Robles Municipal

Weather History for KPRB - June, 2013

Change the Weather History Date:

Sunday, June 2, 2013

  Actual Average Record
Temperature  
Mean Temperature 71 °F 66 °F  
Max Temperature 86 °F 84 °F 108 °F (1970)
Min Temperature 55 °F 48 °F 38 °F (1955)
Degree Days  
Heating Degree Days 0 2  
Month to date heating degree days 0 4  
Since 1 June heating degree days 0 4  
Since 1 July heating degree days 2383 2826  
Cooling Degree Days 6 3  
Month to date cooling degree days 18 6  
Year to date cooling degree days 148 74  
Since 1 June cooling degree days 18 6  
Growing Degree Days 20 (Base 50)    
Moisture  
Dew Point 48 °F    
Average Humidity 57    
Maximum Humidity 86    
Minimum Humidity 27    
Precipitation  
Precipitation 0.00 in 0.00 in 0.00 in (2016)
Month to date precipitation 0.00 0.00  
Year to date precipitation 1.46 8.77  
Since 1 July precipitation 4.67  
Sea Level Pressure  
Sea Level Pressure 29.74 in    
Wind  
Wind Speed 10 mph (SW)    
Max Wind Speed 26 mph    
Max Gust Speed 32 mph    
Visibility 10 miles    
Events      
T = Trace of Precipitation, MM = Missing Value Source: NWS Daily Summary

Daily Weather History Graph

Daily Weather History Graph

Search for Another Location

Airport or City:

Trip Planner

Search our weather history database for the weather conditions in past years. The results will help you decide how hot, cold, wet, or windy it might be!

Date:

Astronomy

Jun. 02, 2013 Rise Set
Actual Time 5:47 AM PDT 8:13 PM PDT
Civil Twilight 5:18 AM PDT 8:43 PM PDT
Nautical Twilight 4:41 AM PDT 9:20 PM PDT
Astronomical Twilight 4:01 AM PDT 10:00 PM PDT
Moon 2:06 AM PDT (6/2) 2:59 PM PDT (6/2)
Length of Visible Light 15h 25m
Length of Day
14h 26m
Waning Crescent, 30% of the Moon is Illuminated
Jun 2
Waning Crescent
Jun 8
New
Jun 16
First Quarter
Jun 23
Full
Jun 29
Last Quarter

Hourly Weather History & Observations

Time (PDT) Temp. Dew Point Humidity Pressure Visibility Wind Dir Wind Speed Gust Speed Precip Events Conditions
12:53 AM 68.0 °F 42.1 °F 39% 29.75 in 10.0 mi Calm Calm - N/A   Clear
1:53 AM 64.9 °F 43.0 °F 45% 29.74 in 10.0 mi NW 4.6 mph - N/A   Clear
2:53 AM 62.1 °F 43.0 °F 50% 29.73 in 10.0 mi Calm Calm - N/A   Clear
3:53 AM 59.0 °F 42.1 °F 53% 29.73 in 10.0 mi Calm Calm - N/A   Clear
4:53 AM 57.9 °F 43.0 °F 58% 29.73 in 10.0 mi Calm Calm - N/A   Clear
5:53 AM 55.0 °F 44.1 °F 67% 29.74 in 10.0 mi Calm Calm - N/A   Clear
6:53 AM 57.0 °F 46.0 °F 67% 29.76 in 10.0 mi NNW 5.8 mph - N/A   Clear
7:53 AM 59.0 °F 46.9 °F 64% 29.76 in 10.0 mi West 3.5 mph - N/A   Clear
8:53 AM 64.0 °F 46.9 °F 54% 29.76 in 10.0 mi Calm Calm - N/A   Clear
9:53 AM 72.0 °F 46.0 °F 40% 29.75 in 10.0 mi Variable 3.5 mph - N/A   Clear
10:53 AM 79.0 °F 48.0 °F 34% 29.73 in 10.0 mi SW 8.1 mph - N/A   Clear
11:53 AM 84.0 °F 48.0 °F 28% 29.72 in 10.0 mi South 10.4 mph - N/A   Clear
12:53 PM 84.9 °F 46.9 °F 27% 29.70 in 10.0 mi SSW 17.3 mph - N/A   Clear
1:53 PM 86.0 °F 48.9 °F 28% 29.69 in 10.0 mi SSW 18.4 mph - N/A   Clear
2:53 PM 82.9 °F 51.1 °F 33% 29.69 in 10.0 mi SW 19.6 mph 26.5 mph N/A   Clear
3:53 PM 79.0 °F 51.1 °F 38% 29.69 in 10.0 mi SSW 21.9 mph 28.8 mph N/A   Clear
4:53 PM 73.9 °F 52.0 °F 46% 29.70 in 10.0 mi SSW 23.0 mph 31.1 mph N/A   Clear
5:53 PM 70.0 °F 53.1 °F 55% 29.70 in 10.0 mi SSW 23.0 mph 29.9 mph N/A   Clear
6:53 PM 64.9 °F 53.1 °F 65% 29.71 in 10.0 mi SSW 19.6 mph 27.6 mph N/A   Clear
7:53 PM 62.1 °F 53.1 °F 72% 29.73 in 10.0 mi SW 13.8 mph - N/A   Clear
8:53 PM 59.0 °F 53.1 °F 81% 29.75 in 10.0 mi SSW 9.2 mph - N/A   Clear
9:53 PM 57.9 °F 52.0 °F 81% 29.78 in 10.0 mi SSW 8.1 mph - N/A   Clear
10:53 PM 55.9 °F 51.1 °F 84% 29.79 in 10.0 mi SSW 9.2 mph - N/A   Clear
11:32 PM 55.4 °F 51.8 °F 88% 29.80 in 10.0 mi SW 10.4 mph - N/A   Scattered Clouds
11:41 PM 55.4 °F 51.8 °F 88% 29.80 in 10.0 mi SW 10.4 mph - N/A   Mostly Cloudy
11:53 PM 55.0 °F 51.1 °F 86% 29.79 in 10.0 mi SW 10.4 mph - N/A   Overcast